Station Historical Data
Daily Summary for March 7, 2017 Units:  Metric    English   Both
« Previous Day
Next Day »
Daily Weekly Monthly Yearly Custom
  High: Low: Average:
Temperature: 14.6 °C 5.2 °C 11.1 °C
Dew Point: 11.4 °C 0.9 °C 8.8 °C
Humidity: 92% 68% 86%
Wind Speed: 24.1km/h 0km/h 9.5km/h
Wind Gust: 33.8km/h - -
Wind- - SSW
Pressure: 1018.2 hPa 1008.7 hPa -
Precipitation: 0 mm    
Historical Graphs
 
 
Tabular Data for March 7, 2017
Time Temperature Dew Point Pressure Wind Wind Speed Wind Gust Humidity Rainfall Rate (Hourly)
00:04 11.6 °C 8.1 °C 1018.2 hPa South 8 km/h 27.4 km/h 79% 0 mm
00:09 11.4 °C 8.1 °C 1018.2 hPa SE 8 km/h 14.5 km/h 80% 0 mm
00:14 11.3 °C 8 °C 1018.2 hPa South 4.8 km/h 22.5 km/h 80% 0 mm
00:19 11.3 °C 8.1 °C 1018.2 hPa South 4.8 km/h 14.5 km/h 81% 0 mm
00:24 11.3 °C 8.1 °C 1018.2 hPa SSE 12.9 km/h 17.7 km/h 81% 0 mm
00:29 11.2 °C 8.3 °C 1018.2 hPa SSW 11.3 km/h 19.3 km/h 82% 0 mm
00:34 11.1 °C 8.3 °C 1018.2 hPa SSW 11.3 km/h 19.3 km/h 83% 0 mm
00:39 10.8 °C 8.4 °C 1018.2 hPa SSW 9.7 km/h 19.3 km/h 85% 0 mm
00:44 10.7 °C 8.4 °C 1018.2 hPa South 8 km/h 19.3 km/h 86% 0 mm
00:49 10.5 °C 8.4 °C 1018.2 hPa South 8 km/h 17.7 km/h 87% 0 mm
00:54 10.4 °C 8.5 °C 1018.2 hPa SSW 8 km/h 17.7 km/h 88% 0 mm
00:59 10.3 °C 8.4 °C 1018.2 hPa SSW 8 km/h 11.3 km/h 88% 0.25 mm
01:04 10.3 °C 8.6 °C 1017.8 hPa South 3.2 km/h 12.9 km/h 89% 0.25 mm
01:09 10.2 °C 8.5 °C 1017.8 hPa SW 6.4 km/h 12.9 km/h 89% 0.25 mm
01:14 10.2 °C 8.6 °C 1017.8 hPa South 8 km/h 11.3 km/h 90% 0.25 mm
01:19 10.1 °C 8.6 °C 1017.8 hPa South 4.8 km/h 12.9 km/h 90% 0.51 mm
01:24 10.1 °C 8.6 °C 1017.5 hPa South 8 km/h 11.3 km/h 90% 0.51 mm
01:29 10.1 °C 8.7 °C 1017.5 hPa South 4.8 km/h 12.9 km/h 91% 0.51 mm
01:34 10.1 °C 8.7 °C 1017.2 hPa South 6.4 km/h 12.9 km/h 91% 0.76 mm
01:39 10.1 °C 8.7 °C 1017.2 hPa South 6.4 km/h 12.9 km/h 91% 0.76 mm
01:44 10.1 °C 8.7 °C 1017.2 hPa South 6.4 km/h 12.9 km/h 91% 1.02 mm
01:49 10.1 °C 8.7 °C 1017.2 hPa South 6.4 km/h 14.5 km/h 91% 1.27 mm
01:54 10.1 °C 8.7 °C 1017.2 hPa South 6.4 km/h 14.5 km/h 91% 1.78 mm
01:59 10.1 °C 8.8 °C 1016.8 hPa SSW 4.8 km/h 11.3 km/h 92% 1.78 mm
02:04 10.1 °C 8.8 °C 1016.8 hPa South 3.2 km/h 11.3 km/h 92% 2.03 mm
02:09 10.1 °C 8.8 °C 1016.8 hPa SSE 6.4 km/h 11.3 km/h 92% 2.29 mm
02:14 10.1 °C 8.9 °C 1016.8 hPa South 6.4 km/h 11.3 km/h 92% 2.29 mm
02:19 10.1 °C 8.9 °C 1016.5 hPa South 6.4 km/h 11.3 km/h 92% 2.29 mm
02:24 10.1 °C 8.9 °C 1016.5 hPa South 6.4 km/h 11.3 km/h 92% 2.29 mm
02:29 10.1 °C 8.9 °C 1016.5 hPa South 4.8 km/h 12.9 km/h 92% 2.29 mm
02:34 10.1 °C 8.9 °C 1016.5 hPa SW 8 km/h 12.9 km/h 92% 2.03 mm
02:39 10.2 °C 8.8 °C 1016.5 hPa SSW 8 km/h 14.5 km/h 91% 2.03 mm
02:44 10.3 °C 9.1 °C 1016.5 hPa South 8 km/h 14.5 km/h 92% 1.78 mm
02:49 10.4 °C 9.1 °C 1016.1 hPa SW 6.4 km/h 16.1 km/h 91% 1.52 mm
02:54 10.6 °C 9.2 °C 1016.1 hPa South 8 km/h 11.3 km/h 91% 1.27 mm
02:59 10.7 °C 9.1 °C 1016.1 hPa SSW 11.3 km/h 24.1 km/h 90% 1.02 mm
03:04 10.8 °C 9.3 °C 1016.1 hPa South 4.8 km/h 17.7 km/h 90% 0.76 mm
03:09 10.8 °C 9.1 °C 1016.1 hPa South 11.3 km/h 16.1 km/h 89% 0.51 mm
03:14 10.8 °C 9.1 °C 1016.1 hPa SSW 8 km/h 16.1 km/h 89% 0.51 mm
03:19 10.9 °C 9.2 °C 1015.8 hPa SSW 9.7 km/h 17.7 km/h 89% 0.76 mm
03:24 10.9 °C 9.2 °C 1015.8 hPa SSW 9.7 km/h 20.9 km/h 89% 0.76 mm
03:29 10.9 °C 9.2 °C 1015.8 hPa SSW 9.7 km/h 20.9 km/h 89% 1.27 mm
03:34 10.8 °C 9.3 °C 1015.8 hPa SSW 1.6 km/h 17.7 km/h 90% 1.52 mm
03:39 10.8 °C 9.3 °C 1015.8 hPa South 11.3 km/h 16.1 km/h 90% 1.52 mm
03:44 10.9 °C 9.3 °C 1015.5 hPa South 12.9 km/h 19.3 km/h 90% 1.78 mm
03:49 10.9 °C 9.3 °C 1015.5 hPa South 9.7 km/h 24.1 km/h 90% 1.78 mm
03:54 10.9 °C 9.5 °C 1015.5 hPa South 9.7 km/h 24.1 km/h 91% 1.52 mm
03:59 10.9 °C 9.5 °C 1015.5 hPa South 8 km/h 17.7 km/h 91% 1.78 mm
04:04 11 °C 9.4 °C 1015.5 hPa South 9.7 km/h 17.7 km/h 90% 1.78 mm
04:09 11 °C 9.4 °C 1015.1 hPa SSW 6.4 km/h 27.4 km/h 90% 1.78 mm
04:14 11.1 °C 9.6 °C 1015.1 hPa South 9.7 km/h 19.3 km/h 90% 1.78 mm
04:19 11.2 °C 9.6 °C 1015.1 hPa South 9.7 km/h 19.3 km/h 90% 1.27 mm
04:24 11.2 °C 9.5 °C 1015.1 hPa SE 11.3 km/h 19.3 km/h 89% 1.27 mm
04:29 11.2 °C 9.5 °C 1015.1 hPa South 9.7 km/h 19.3 km/h 89% 1.02 mm
04:34 11.2 °C 9.5 °C 1015.1 hPa South 12.9 km/h 14.5 km/h 89% 1.02 mm
04:39 11.3 °C 9.6 °C 1015.1 hPa South 11.3 km/h 24.1 km/h 89% 1.27 mm
04:44 11.3 °C 9.6 °C 1015.1 hPa South 12.9 km/h 19.3 km/h 89% 1.27 mm
04:49 11.2 °C 9.5 °C 1015.1 hPa South 9.7 km/h 19.3 km/h 89% 1.52 mm
04:54 11.2 °C 9.7 °C 1015.1 hPa South 9.7 km/h 19.3 km/h 90% 1.52 mm
04:59 11.3 °C 9.7 °C 1015.1 hPa South 11.3 km/h 19.3 km/h 90% 1.52 mm
05:04 11.3 °C 9.7 °C 1014.8 hPa South 11.3 km/h 19.3 km/h 90% 2.03 mm
05:09 11.3 °C 9.8 °C 1014.8 hPa South 8 km/h 20.9 km/h 90% 2.29 mm
05:14 11.4 °C 9.8 °C 1014.8 hPa SSE 11.3 km/h 17.7 km/h 90% 2.29 mm
05:19 11.4 °C 9.7 °C 1014.8 hPa South 9.7 km/h 22.5 km/h 89% 2.29 mm
05:24 11.4 °C 9.7 °C 1014.8 hPa South 11.3 km/h 22.5 km/h 89% 2.29 mm
05:29 11.5 °C 9.7 °C 1014.8 hPa South 9.7 km/h 22.5 km/h 89% 2.03 mm
05:34 11.4 °C 9.7 °C 1014.8 hPa South 11.3 km/h 22.5 km/h 89% 1.78 mm
05:39 11.4 °C 9.7 °C 1014.8 hPa South 11.3 km/h 20.9 km/h 89% 1.52 mm
05:44 11.5 °C 9.7 °C 1014.8 hPa SSW 8 km/h 20.9 km/h 89% 1.27 mm
05:49 11.4 °C 9.5 °C 1014.4 hPa South 9.7 km/h 22.5 km/h 88% 1.02 mm
05:54 11.5 °C 9.6 °C 1014.4 hPa SSE 12.9 km/h 25.7 km/h 88% 1.02 mm
05:59 11.6 °C 9.6 °C 1014.4 hPa South 11.3 km/h 25.7 km/h 88% 0.76 mm
06:04 11.6 °C 9.6 °C 1014.4 hPa South 11.3 km/h 25.7 km/h 88% 0.25 mm
06:09 11.7 °C 9.7 °C 1014.1 hPa South 11.3 km/h 25.7 km/h 88% 0 mm
06:14 11.7 °C 9.6 °C 1014.1 hPa SSW 11.3 km/h 14.5 km/h 87% 0 mm
06:19 11.7 °C 9.6 °C 1014.1 hPa SSW 4.8 km/h 16.1 km/h 87% 0 mm
06:24 11.7 °C 9.6 °C 1014.1 hPa SSW 8 km/h 20.9 km/h 87% 0 mm
06:29 11.8 °C 9.7 °C 1014.1 hPa South 6.4 km/h 14.5 km/h 87% 0 mm
06:34 11.8 °C 9.5 °C 1013.8 hPa South 8 km/h 16.1 km/h 86% 0 mm
06:39 11.8 °C 9.6 °C 1013.8 hPa South 8 km/h 16.1 km/h 86% 0 mm
06:44 11.9 °C 9.6 °C 1013.8 hPa South 9.7 km/h 16.1 km/h 86% 0 mm
06:49 11.9 °C 9.7 °C 1013.8 hPa South 8 km/h 16.1 km/h 86% 0 mm
06:54 12 °C 9.6 °C 1013.8 hPa SSW 11.3 km/h 19.3 km/h 85% 0 mm
06:59 12.1 °C 9.7 °C 1013.8 hPa South 12.9 km/h 17.7 km/h 85% 0 mm
07:04 12.2 °C 9.7 °C 1013.8 hPa South 8 km/h 17.7 km/h 85% 0 mm
07:09 12.2 °C 9.6 °C 1013.8 hPa South 9.7 km/h 17.7 km/h 84% 0 mm
07:14 12.3 °C 9.7 °C 1013.8 hPa South 9.7 km/h 22.5 km/h 84% 0 mm
07:19 12.4 °C 9.6 °C 1013.8 hPa SW 6.4 km/h 14.5 km/h 83% 0 mm
07:24 12.4 °C 9.6 °C 1013.8 hPa SSE 8 km/h 14.5 km/h 83% 0 mm
07:29 12.4 °C 9.6 °C 1013.8 hPa SE 6.4 km/h 14.5 km/h 83% 0 mm
07:34 12.4 °C 9.6 °C 1013.8 hPa South 9.7 km/h 19.3 km/h 83% 0 mm
07:39 12.7 °C 9.7 °C 1013.8 hPa South 11.3 km/h 25.7 km/h 82% 0 mm
07:44 12.8 °C 9.6 °C 1013.8 hPa South 11.3 km/h 25.7 km/h 81% 0 mm
07:49 12.8 °C 9.7 °C 1013.8 hPa South 11.3 km/h 20.9 km/h 81% 0.25 mm
07:54 12.7 °C 9.7 °C 1013.8 hPa SSW 9.7 km/h 20.9 km/h 82% 0.51 mm
07:59 12.6 °C 9.8 °C 1013.8 hPa SSW 12.9 km/h 19.3 km/h 83% 0.51 mm
08:04 12.5 °C 9.9 °C 1013.8 hPa South 6.4 km/h 19.3 km/h 84% 1.02 mm
08:09 12.4 °C 9.8 °C 1013.8 hPa SSW 11.3 km/h 25.7 km/h 84% 1.02 mm
08:14 12.3 °C 9.7 °C 1013.8 hPa South 9.7 km/h 25.7 km/h 84% 1.02 mm
08:19 12.3 °C 9.8 °C 1013.8 hPa South 9.7 km/h 19.3 km/h 85% 1.02 mm
08:24 12.2 °C 9.8 °C 1013.8 hPa South 9.7 km/h 22.5 km/h 85% 1.27 mm
08:29 12.2 °C 9.7 °C 1013.8 hPa South 9.7 km/h 22.5 km/h 85% 1.27 mm
08:34 12.2 °C 9.7 °C 1013.8 hPa South 9.7 km/h 20.9 km/h 85% 1.27 mm
08:39 12.1 °C 9.8 °C 1013.8 hPa SSW 11.3 km/h 16.1 km/h 86% 1.27 mm
08:44 12.1 °C 9.8 °C 1014.1 hPa SSE 8 km/h 17.7 km/h 86% 1.27 mm
08:49 12.1 °C 9.8 °C 1014.1 hPa South 9.7 km/h 17.7 km/h 86% 1.27 mm
08:54 11.9 °C 9.8 °C 1014.1 hPa SSE 11.3 km/h 14.5 km/h 87% 1.02 mm
08:59 11.9 °C 9.8 °C 1014.1 hPa SSW 6.4 km/h 17.7 km/h 87% 1.02 mm
09:04 11.8 °C 9.9 °C 1013.8 hPa SSE 9.7 km/h 12.9 km/h 88% 0.76 mm
09:09 11.8 °C 9.8 °C 1013.8 hPa SSW 8 km/h 14.5 km/h 88% 1.02 mm
09:14 11.8 °C 9.9 °C 1013.8 hPa South 8 km/h 12.9 km/h 88% 1.27 mm
09:19 11.8 °C 9.8 °C 1013.8 hPa South 11.3 km/h 16.1 km/h 88% 1.78 mm
09:24 11.8 °C 10.1 °C 1013.8 hPa South 8 km/h 16.1 km/h 89% 1.78 mm
09:29 11.9 °C 10.1 °C 1013.8 hPa South 8 km/h 14.5 km/h 89% 2.03 mm
09:34 11.9 °C 10 °C 1013.8 hPa SSW 8 km/h 17.7 km/h 88% 2.03 mm
09:39 12 °C 10.1 °C 1013.8 hPa SSW 8 km/h 17.7 km/h 88% 2.29 mm
09:44 12.2 °C 10.2 °C 1013.8 hPa SSW 3.2 km/h 14.5 km/h 88% 2.29 mm
09:49 12.3 °C 10.2 °C 1013.4 hPa SSW 11.3 km/h 17.7 km/h 87% 2.03 mm
09:54 12.3 °C 10.2 °C 1013.4 hPa SSW 8 km/h 14.5 km/h 87% 2.29 mm
09:59 12.3 °C 10.2 °C 1013.4 hPa SSW 8 km/h 19.3 km/h 87% 2.29 mm
10:04 12.3 °C 10.2 °C 1013.4 hPa South 12.9 km/h 16.1 km/h 87% 2.03 mm
10:09 12.3 °C 10.2 °C 1013.1 hPa SSE 6.4 km/h 19.3 km/h 87% 2.03 mm
10:14 12.3 °C 10.3 °C 1013.1 hPa South 9.7 km/h 14.5 km/h 88% 1.78 mm
10:19 12.3 °C 10.4 °C 1013.1 hPa South 6.4 km/h 16.1 km/h 88% 1.52 mm
10:24 12.3 °C 10.4 °C 1013.1 hPa SSW 9.7 km/h 12.9 km/h 88% 1.27 mm
10:29 12.4 °C 10.3 °C 1013.1 hPa SW 12.9 km/h 14.5 km/h 87% 1.02 mm
10:34 12.6 °C 10.4 °C 1012.8 hPa SSW 8 km/h 16.1 km/h 87% 1.02 mm
10:39 12.7 °C 10.6 °C 1012.8 hPa SSW 9.7 km/h 19.3 km/h 87% 1.02 mm
10:44 12.8 °C 10.5 °C 1012.8 hPa SSW 9.7 km/h 20.9 km/h 86% 1.02 mm
10:49 13 °C 10.7 °C 1012.8 hPa SSW 11.3 km/h 20.9 km/h 86% 1.02 mm
10:54 13.1 °C 10.8 °C 1012.8 hPa SSW 11.3 km/h 22.5 km/h 86% 0.76 mm
10:59 13.2 °C 10.7 °C 1012.8 hPa SSW 12.9 km/h 22.5 km/h 85% 0.76 mm
11:04 13.3 °C 10.9 °C 1012.8 hPa SSW 12.9 km/h 24.1 km/h 85% 0.76 mm
11:09 13.3 °C 10.9 °C 1012.8 hPa SSE 9.7 km/h 22.5 km/h 85% 0.51 mm
11:14 13.1 °C 10.7 °C 1012.8 hPa SW 11.3 km/h 24.1 km/h 85% 0.76 mm
11:19 12.9 °C 10.6 °C 1012.8 hPa SW 8 km/h 22.5 km/h 86% 0.51 mm
11:24 12.8 °C 10.5 °C 1012.4 hPa SSW 6.4 km/h 29 km/h 86% 0.76 mm
11:29 12.7 °C 10.4 °C 1012.4 hPa SW 11.3 km/h 22.5 km/h 86% 0.76 mm
11:34 12.7 °C 10.6 °C 1012.1 hPa South 8 km/h 24.1 km/h 87% 0.76 mm
11:39 12.7 °C 10.4 °C 1012.1 hPa South 11.3 km/h 24.1 km/h 86% 0.51 mm
11:44 12.8 °C 10.6 °C 1012.1 hPa SSW 11.3 km/h 19.3 km/h 86% 0.51 mm
11:49 12.9 °C 10.5 °C 1012.1 hPa SSW 11.3 km/h 22.5 km/h 85% 0.51 mm
11:54 13 °C 10.3 °C 1011.7 hPa South 11.3 km/h 24.1 km/h 84% 0.51 mm
11:59 13.2 °C 10.6 °C 1011.7 hPa SSW 8 km/h 24.1 km/h 84% 0.51 mm
12:04 13.4 °C 10.6 °C 1011.7 hPa South 12.9 km/h 20.9 km/h 83% 0.51 mm
12:09 13.6 °C 10.6 °C 1011.7 hPa SW 22.5 km/h 33.8 km/h 82% 0.51 mm
12:14 13.8 °C 10.8 °C 1011.4 hPa SSW 14.5 km/h 33.8 km/h 82% 0.25 mm
12:19 13.9 °C 10.7 °C 1011.4 hPa SSW 14.5 km/h 29 km/h 81% 0.25 mm
12:24 14.1 °C 10.7 °C 1011.4 hPa South 11.3 km/h 29 km/h 80% 0 mm
12:29 14.1 °C 10.7 °C 1011.4 hPa SSW 17.7 km/h 30.6 km/h 80% 0 mm
12:34 14 °C 10.6 °C 1011.4 hPa SSW 6.4 km/h 29 km/h 80% 0 mm
12:39 14 °C 10.6 °C 1011.1 hPa South 11.3 km/h 30.6 km/h 80% 0 mm
12:44 14.1 °C 10.7 °C 1011.1 hPa SSW 16.1 km/h 30.6 km/h 80% 0 mm
12:49 14.1 °C 10.7 °C 1011.1 hPa SSW 14.5 km/h 30.6 km/h 80% 0 mm
12:54 14.1 °C 10.4 °C 1011.1 hPa SSW 14.5 km/h 30.6 km/h 79% 0 mm
12:59 14.1 °C 10.5 °C 1011.1 hPa South 24.1 km/h 27.4 km/h 79% 0 mm
13:04 14.1 °C 10.5 °C 1010.7 hPa South 14.5 km/h 30.6 km/h 79% 0 mm
13:09 14.2 °C 10.6 °C 1010.7 hPa South 16.1 km/h 24.1 km/h 79% 0 mm
13:14 14.3 °C 10.5 °C 1010.7 hPa SSW 9.7 km/h 30.6 km/h 78% 0 mm
13:19 14.3 °C 10.5 °C 1010.7 hPa SSW 14.5 km/h 30.6 km/h 78% 0 mm
13:24 14.4 °C 10.6 °C 1010.4 hPa SSW 12.9 km/h 27.4 km/h 78% 0 mm
13:29 14.4 °C 10.7 °C 1010.4 hPa SSW 12.9 km/h 29 km/h 78% 0 mm
13:34 14.3 °C 10.7 °C 1010.4 hPa SSE 8 km/h 19.3 km/h 79% 0 mm
13:39 14.2 °C 10.8 °C 1010.4 hPa WSW 9.7 km/h 17.7 km/h 80% 0 mm
13:44 14.1 °C 10.9 °C 1010 hPa SSW 6.4 km/h 20.9 km/h 81% 0 mm
13:49 14 °C 10.8 °C 1010 hPa SSW 11.3 km/h 20.9 km/h 81% 0.25 mm
13:54 14 °C 10.8 °C 1009.7 hPa SSW 12.9 km/h 32.2 km/h 81% 0.25 mm
13:59 13.9 °C 11.1 °C 1009.7 hPa SSW 11.3 km/h 32.2 km/h 83% 0.25 mm
14:04 13.8 °C 11 °C 1009.7 hPa SSW 11.3 km/h 25.7 km/h 83% 0.25 mm
14:09 13.7 °C 10.8 °C 1009.7 hPa SSW 12.9 km/h 25.7 km/h 83% 0.51 mm
14:14 13.6 °C 10.9 °C 1009.7 hPa WSW 14.5 km/h 22.5 km/h 84% 0.51 mm
14:19 13.5 °C 10.8 °C 1009.7 hPa South 9.7 km/h 27.4 km/h 84% 0.76 mm
14:24 13.4 °C 10.9 °C 1009.4 hPa SSW 12.9 km/h 27.4 km/h 85% 0.76 mm
14:29 13.7 °C 11.4 °C 1009.4 hPa SW 8 km/h 17.7 km/h 86% 0.76 mm
14:34 13.8 °C 11.3 °C 1009.4 hPa SW 19.3 km/h 19.3 km/h 85% 0.76 mm
14:39 13.7 °C 11.1 °C 1009.4 hPa South 4.8 km/h 27.4 km/h 84% 0.76 mm
14:44 13.7 °C 11.1 °C 1009.4 hPa South 14.5 km/h 29 km/h 84% 0.76 mm
14:49 13.8 °C 11.1 °C 1009.4 hPa SSW 11.3 km/h 29 km/h 84% 0.51 mm
14:54 13.9 °C 11.1 °C 1009 hPa SSW 12.9 km/h 29 km/h 83% 0.51 mm
14:59 14.1 °C 11.2 °C 1009 hPa SSW 11.3 km/h 24.1 km/h 83% 0.51 mm
15:04 14.1 °C 11.1 °C 1008.7 hPa South 8 km/h 25.7 km/h 82% 0.51 mm
15:09 14.3 °C 11.3 °C 1009 hPa South 16.1 km/h 27.4 km/h 82% 0.25 mm
15:14 14.6 °C 11.4 °C 1009 hPa South 11.3 km/h 25.7 km/h 81% 0.25 mm
15:19 14.6 °C 11.3 °C 1009.4 hPa SW 9.7 km/h 24.1 km/h 81% 0 mm
15:24 14.6 °C 11.3 °C 1009.4 hPa South 8 km/h 19.3 km/h 81% 0 mm
15:29 14.6 °C 11.3 °C 1009 hPa SW 11.3 km/h 19.3 km/h 81% 0 mm
15:34 14.4 °C 11.2 °C 1009.4 hPa SW 9.7 km/h 22.5 km/h 81% 0 mm
15:39 14.3 °C 10.9 °C 1009.4 hPa SW 11.3 km/h 22.5 km/h 80% 0 mm
15:44 14.2 °C 11 °C 1009 hPa SW 11.3 km/h 24.1 km/h 81% 0 mm
15:49 14.2 °C 11 °C 1009 hPa SSW 9.7 km/h 24.1 km/h 81% 0 mm
15:54 14.2 °C 10.9 °C 1009 hPa SW 9.7 km/h 25.7 km/h 81% 0 mm
15:59 14.1 °C 10.8 °C 1009 hPa SSW 9.7 km/h 19.3 km/h 81% 0 mm
16:04 13.9 °C 10.7 °C 1009.4 hPa South 4.8 km/h 17.7 km/h 81% 0 mm
16:09 13.9 °C 10.7 °C 1009.4 hPa SW 4.8 km/h 14.5 km/h 81% 0 mm
16:14 13.8 °C 10.6 °C 1009.4 hPa WSW 6.4 km/h 14.5 km/h 81% 0 mm
16:19 13.7 °C 10.5 °C 1009.4 hPa WSW 6.4 km/h 11.3 km/h 81% 0 mm
16:24 13.3 °C 9.9 °C 1009.7 hPa SW 3.2 km/h 16.1 km/h 80% 0 mm
16:29 12.9 °C 9.7 °C 1009.7 hPa SW 14.5 km/h 19.3 km/h 81% 0 mm
16:34 12.4 °C 9.3 °C 1009.7 hPa SW 9.7 km/h 19.3 km/h 81% 0 mm
16:39 12.2 °C 9.2 °C 1009.7 hPa SW 9.7 km/h 17.7 km/h 82% 0 mm
16:44 11.9 °C 9.2 °C 1009.4 hPa SSW 9.7 km/h 20.9 km/h 83% 0 mm
16:49 11.9 °C 9.3 °C 1009.4 hPa SSW 8 km/h 20.9 km/h 84% 0 mm
16:54 11.9 °C 9.3 °C 1009.4 hPa SW 8 km/h 19.3 km/h 84% 0 mm
16:59 12 °C 9.4 °C 1009.4 hPa SW 9.7 km/h 19.3 km/h 84% 0 mm
17:04 12 °C 9.4 °C 1009.4 hPa SW 3.2 km/h 14.5 km/h 84% 0 mm
17:09 12.1 °C 9.4 °C 1009.4 hPa SW 3.2 km/h 14.5 km/h 84% 0 mm
17:14 12.2 °C 9.6 °C 1009.4 hPa SSW 6.4 km/h 9.7 km/h 84% 0 mm
17:19 12.2 °C 9.6 °C 1009 hPa SSW 1.6 km/h 9.7 km/h 84% 0 mm
17:24 12.3 °C 9.7 °C 1009.4 hPa SSW 1.6 km/h 6.4 km/h 84% 0 mm
17:29 12.3 °C 9.7 °C 1009 hPa SW 3.2 km/h 6.4 km/h 84% 0 mm
17:34 12.6 °C 9.9 °C 1009 hPa SW 4.8 km/h 9.7 km/h 84% 0 mm
17:39 12.7 °C 10.1 °C 1009 hPa SSW 4.8 km/h 9.7 km/h 84% 0 mm
17:44 13.2 °C 10.3 °C 1009 hPa SSW 6.4 km/h 12.9 km/h 83% 0 mm
17:49 13.6 °C 10.6 °C 1009 hPa SSW 9.7 km/h 29 km/h 82% 0 mm
17:54 13.8 °C 10.4 °C 1009 hPa SSW 9.7 km/h 29 km/h 80% 0 mm
17:59 14 °C 10.6 °C 1009 hPa SSW 9.7 km/h 22.5 km/h 80% 0 mm
18:04 14.1 °C 10.4 °C 1009 hPa SSW 9.7 km/h 24.1 km/h 79% 0 mm
18:09 14.2 °C 10.6 °C 1009 hPa SSW 11.3 km/h 24.1 km/h 79% 0 mm
18:14 14.2 °C 10.6 °C 1009.4 hPa SSW 12.9 km/h 29 km/h 79% 0 mm
18:19 13.7 °C 9.8 °C 1009.7 hPa WSW 17.7 km/h 33.8 km/h 77% 0 mm
18:24 12.4 °C 9.1 °C 1009.7 hPa WSW 16.1 km/h 22.5 km/h 80% 0 mm
18:29 11.2 °C 8.6 °C 1010 hPa WSW 8 km/h 19.3 km/h 84% 0.25 mm
18:34 10.6 °C 8.3 °C 1010 hPa WSW 11.3 km/h 16.1 km/h 86% 0.25 mm
18:39 10.3 °C 8.3 °C 1010 hPa WSW 8 km/h 16.1 km/h 87% 0.25 mm
18:44 10.2 °C 8.5 °C 1010.4 hPa WSW 8 km/h 16.1 km/h 89% 0.25 mm
18:49 10.2 °C 8.4 °C 1010.4 hPa West 11.3 km/h 22.5 km/h 89% 0.51 mm
18:54 10.1 °C 8.3 °C 1010.4 hPa West 12.9 km/h 29 km/h 89% 0.76 mm
18:59 9.9 °C 8.2 °C 1010.4 hPa West 12.9 km/h 29 km/h 89% 0.76 mm
19:04 9.8 °C 8.1 °C 1010.4 hPa WSW 16.1 km/h 19.3 km/h 89% 1.02 mm
19:09 9.7 °C 8.2 °C 1010.4 hPa West 9.7 km/h 19.3 km/h 90% 1.02 mm
19:14 9.7 °C 8.1 °C 1010.7 hPa WSW 9.7 km/h 19.3 km/h 90% 1.02 mm
19:19 9.4 °C 7.9 °C 1010.4 hPa SW 8 km/h 17.7 km/h 90% 1.02 mm
19:24 9.2 °C 7.7 °C 1010.4 hPa SW 9.7 km/h 22.5 km/h 90% 1.27 mm
19:29 9.1 °C 7.6 °C 1010.4 hPa WSW 11.3 km/h 22.5 km/h 90% 1.02 mm
19:34 8.9 °C 7.4 °C 1010.4 hPa SW 11.3 km/h 22.5 km/h 90% 1.02 mm
19:39 8.8 °C 7.4 °C 1010.7 hPa SW 6.4 km/h 22.5 km/h 91% 1.02 mm
19:44 8.5 °C 6.9 °C 1010.4 hPa West 11.3 km/h 22.5 km/h 90% 1.02 mm
19:49 8.2 °C 6.8 °C 1010.7 hPa WSW 9.7 km/h 22.5 km/h 91% 1.02 mm
19:54 8.1 °C 6.7 °C 1010.4 hPa WSW 11.3 km/h 19.3 km/h 91% 1.02 mm
19:59 8 °C 6.6 °C 1010.4 hPa WSW 8 km/h 19.3 km/h 91% 1.27 mm
20:04 8 °C 6.8 °C 1010.4 hPa WSW 6.4 km/h 14.5 km/h 92% 1.02 mm
20:09 8.1 °C 6.8 °C 1010.4 hPa SW 12.9 km/h 17.7 km/h 92% 1.02 mm
20:14 8.2 °C 6.9 °C 1010.4 hPa SW 9.7 km/h 12.9 km/h 92% 1.02 mm
20:19 8.2 °C 6.9 °C 1010.4 hPa WSW 8 km/h 22.5 km/h 92% 1.27 mm
20:24 8.1 °C 6.8 °C 1010.4 hPa SW 11.3 km/h 22.5 km/h 92% 1.02 mm
20:29 7.9 °C 6.7 °C 1010.4 hPa SW 12.9 km/h 22.5 km/h 92% 1.02 mm
20:34 7.7 °C 6.4 °C 1010.7 hPa SW 12.9 km/h 22.5 km/h 92% 1.02 mm
20:39 7.6 °C 6.3 °C 1010.7 hPa West 16.1 km/h 20.9 km/h 92% 1.27 mm
20:44 7.4 °C 6.2 °C 1011.1 hPa SW 11.3 km/h 22.5 km/h 92% 1.78 mm
20:49 7.3 °C 6.1 °C 1011.4 hPa WSW 12.9 km/h 24.1 km/h 92% 1.78 mm
20:54 7.3 °C 6.1 °C 1011.4 hPa WSW 11.3 km/h 24.1 km/h 92% 1.52 mm
20:59 7.1 °C 5.9 °C 1011.4 hPa SW 11.3 km/h 25.7 km/h 92% 1.27 mm
21:04 6.9 °C 5.7 °C 1011.4 hPa West 6.4 km/h 20.9 km/h 92% 1.52 mm
21:09 6.8 °C 5.6 °C 1011.7 hPa WSW 11.3 km/h 16.1 km/h 92% 1.52 mm
21:14 6.7 °C 5.4 °C 1011.7 hPa West 9.7 km/h 19.3 km/h 92% 1.52 mm
21:19 6.4 °C 5.2 °C 1011.7 hPa WNW 6.4 km/h 19.3 km/h 92% 1.52 mm
21:24 6.3 °C 5.1 °C 1012.1 hPa West 9.7 km/h 22.5 km/h 92% 1.52 mm
21:29 6.1 °C 4.9 °C 1012.1 hPa WSW 11.3 km/h 22.5 km/h 92% 1.52 mm
21:34 5.9 °C 4.7 °C 1012.1 hPa WSW 11.3 km/h 20.9 km/h 92% 1.52 mm
21:39 5.8 °C 4.6 °C 1012.4 hPa WSW 11.3 km/h 20.9 km/h 92% 1.52 mm
21:44 5.7 °C 4.4 °C 1012.4 hPa WSW 11.3 km/h 25.7 km/h 92% 1.02 mm
21:49 5.5 °C 4.3 °C 1012.4 hPa WSW 12.9 km/h 27.4 km/h 92% 1.02 mm
21:54 5.4 °C 4.2 °C 1012.4 hPa West 11.3 km/h 19.3 km/h 92% 1.52 mm
21:59 5.3 °C 4.1 °C 1012.8 hPa WSW 11.3 km/h 19.3 km/h 92% 1.52 mm
22:04 5.2 °C 4.1 °C 1013.1 hPa SW 8 km/h 19.3 km/h 92% 1.52 mm
22:09 5.2 °C 4.1 °C 1013.1 hPa West 11.3 km/h 19.3 km/h 92% 1.52 mm
22:14 5.2 °C 4.1 °C 1012.8 hPa WSW 4.8 km/h 14.5 km/h 92% 1.52 mm
22:19 5.3 °C 4.1 °C 1012.4 hPa Calm   14.5 km/h 92% 1.27 mm
22:24 5.3 °C 4.1 °C 1012.4 hPa SW 3.2 km/h 11.3 km/h 92% 1.52 mm
22:29 5.4 °C 4.1 °C 1013.1 hPa WSW 4.8 km/h 12.9 km/h 91% 1.52 mm
22:34 5.5 °C 4 °C 1013.1 hPa West 6.4 km/h 12.9 km/h 90% 1.52 mm
22:39 5.4 °C 3.8 °C 1013.1 hPa WSW 8 km/h 17.7 km/h 89% 1.27 mm
22:44 5.4 °C 3.4 °C 1012.8 hPa WSW 9.7 km/h 17.7 km/h 87% 1.27 mm
22:49 5.4 °C 3.4 °C 1013.1 hPa WSW 6.4 km/h 14.5 km/h 87% 1.02 mm
22:54 5.4 °C 3.1 °C 1013.1 hPa SW 9.7 km/h 11.3 km/h 85% 0.51 mm
22:59 5.4 °C 2.9 °C 1013.1 hPa WSW 4.8 km/h 12.9 km/h 84% 0.51 mm
23:04 5.5 °C 2.8 °C 1013.1 hPa SW 6.4 km/h 12.9 km/h 83% 0.25 mm
23:09 5.4 °C 2.6 °C 1012.8 hPa SW 4.8 km/h 12.9 km/h 82% 0.25 mm
23:14 5.3 °C 2.5 °C 1013.1 hPa SW 4.8 km/h 11.3 km/h 82% 0.25 mm
23:19 5.3 °C 2.4 °C 1012.8 hPa SW 11.3 km/h 14.5 km/h 82% 0.25 mm
23:24 5.7 °C 1.9 °C 1012.8 hPa WNW 6.4 km/h 17.7 km/h 77% 0 mm
23:29 5.8 °C 1.9 °C 1013.1 hPa SW 6.4 km/h 12.9 km/h 76% 0 mm
23:34 6 °C 1.7 °C 1013.1 hPa West 16.1 km/h 19.3 km/h 74% 0 mm
23:39 6.1 °C 1.8 °C 1012.8 hPa WSW 9.7 km/h 19.3 km/h 74% 0 mm
23:44 6.4 °C 0.9 °C 1013.1 hPa WSW 11.3 km/h 24.1 km/h 68% 0 mm
23:49 6.3 °C 1.4 °C 1013.1 hPa WSW 9.7 km/h 24.1 km/h 71% 0 mm
23:54 6.1 °C 1.4 °C 1013.4 hPa SW 8 km/h 12.9 km/h 72% 0 mm
23:59 6 °C 1.5 °C 1013.1 hPa SW 3.2 km/h 11.3 km/h 73% 0 mm
Buffalo, New York, USA
Compliments of Weather Underground - 2.5 mb